﻿測定場所 (Monitoring sites),日付 (Measurement date),時間 (Measurement time),線量率 最大値 (max) μGy/h,線量率 最小値 (min) μGy/h,線量率 平均値 (average) μGy/h,
新宿 (Shinjuku),2011-10-09,23:00～23:59,0.0614,0.0562,0.0590,
新宿 (Shinjuku),2011-10-09,22:00～22:59,0.0610,0.0543,0.0576,
新宿 (Shinjuku),2011-10-09,21:00～21:59,0.0596,0.0522,0.0566,
新宿 (Shinjuku),2011-10-09,20:00～20:59,0.0583,0.0528,0.0552,
新宿 (Shinjuku),2011-10-09,19:00～19:59,0.0574,0.0527,0.0551,
新宿 (Shinjuku),2011-10-09,18:00～18:59,0.0572,0.0516,0.0551,
新宿 (Shinjuku),2011-10-09,17:00～17:59,0.0580,0.0525,0.0551,
新宿 (Shinjuku),2011-10-09,16:00～16:59,0.0567,0.0522,0.0548,
新宿 (Shinjuku),2011-10-09,15:00～15:59,0.0581,0.0529,0.0550,
新宿 (Shinjuku),2011-10-09,14:00～14:59,0.0579,0.0523,0.0552,
新宿 (Shinjuku),2011-10-09,13:00～13:59,0.0576,0.0528,0.0556,
新宿 (Shinjuku),2011-10-09,12:00～12:59,0.0586,0.0525,0.0555,
新宿 (Shinjuku),2011-10-09,11:00～11:59,0.0584,0.0523,0.0557,
新宿 (Shinjuku),2011-10-09,10:00～10:59,0.0586,0.0534,0.0563,
新宿 (Shinjuku),2011-10-09,09:00～09:59,0.0588,0.0541,0.0566,
新宿 (Shinjuku),2011-10-09,08:00～08:59,0.0586,0.0544,0.0564,
新宿 (Shinjuku),2011-10-09,07:00～07:59,0.0580,0.0531,0.0561,
新宿 (Shinjuku),2011-10-09,06:00～06:59,0.0593,0.0540,0.0560,
新宿 (Shinjuku),2011-10-09,05:00～05:59,0.0588,0.0544,0.0564,
新宿 (Shinjuku),2011-10-09,04:00～04:59,0.0579,0.0537,0.0556,
新宿 (Shinjuku),2011-10-09,03:00～03:59,0.0589,0.0539,0.0565,
新宿 (Shinjuku),2011-10-09,02:00～02:59,0.0589,0.0544,0.0566,
新宿 (Shinjuku),2011-10-09,01:00～01:59,0.0584,0.0532,0.0555,
新宿 (Shinjuku),2011-10-09,00:00～00:59,0.0579,0.0526,0.0553,
新宿 (Shinjuku),2011-10-08,23:00～23:59,0.0579,0.0516,0.0552,
新宿 (Shinjuku),2011-10-08,22:00～22:59,0.0578,0.0534,0.0553,
新宿 (Shinjuku),2011-10-08,21:00～21:59,0.0583,0.0522,0.0552,
新宿 (Shinjuku),2011-10-08,20:00～20:59,0.0577,0.0517,0.0551,
新宿 (Shinjuku),2011-10-08,19:00～19:59,0.0578,0.0530,0.0551,
新宿 (Shinjuku),2011-10-08,18:00～18:59,0.0577,0.0524,0.0548,
新宿 (Shinjuku),2011-10-08,17:00～17:59,0.0576,0.0523,0.0551,
新宿 (Shinjuku),2011-10-08,16:00～16:59,0.0583,0.0517,0.0552,
新宿 (Shinjuku),2011-10-08,15:00～15:59,,,停電中,
新宿 (Shinjuku),2011-10-08,14:00～14:59,,,停電中,
新宿 (Shinjuku),2011-10-08,13:00～13:59,,,停電中,
新宿 (Shinjuku),2011-10-08,12:00～12:59,,,停電中,
新宿 (Shinjuku),2011-10-08,11:00～11:59,,,停電中,
新宿 (Shinjuku),2011-10-08,10:00～10:59,0.0583,0.0518,0.0558,
新宿 (Shinjuku),2011-10-08,09:00～09:59,0.0592,0.0530,0.0561,
新宿 (Shinjuku),2011-10-08,08:00～08:59,0.0589,0.0534,0.0563,
新宿 (Shinjuku),2011-10-08,07:00～07:59,0.0589,0.0528,0.0557,
新宿 (Shinjuku),2011-10-08,06:00～06:59,0.0578,0.0530,0.0559,
新宿 (Shinjuku),2011-10-08,05:00～05:59,0.0587,0.0523,0.0555,
新宿 (Shinjuku),2011-10-08,04:00～04:59,0.0583,0.0523,0.0554,
新宿 (Shinjuku),2011-10-08,03:00～03:59,0.0581,0.0529,0.0557,
新宿 (Shinjuku),2011-10-08,02:00～02:59,0.0577,0.0526,0.0554,
新宿 (Shinjuku),2011-10-08,01:00～01:59,0.0583,0.0526,0.0554,
新宿 (Shinjuku),2011-10-08,00:00～00:59,0.0573,0.0527,0.0552,
新宿 (Shinjuku),2011-10-07,23:00～23:59,0.0575,0.0531,0.0554,
新宿 (Shinjuku),2011-10-07,22:00～22:59,0.0579,0.0523,0.0550,
新宿 (Shinjuku),2011-10-07,21:00～21:59,0.0583,0.0527,0.0553,
新宿 (Shinjuku),2011-10-07,20:00～20:59,0.0576,0.0524,0.0552,
新宿 (Shinjuku),2011-10-07,19:00～19:59,0.0578,0.0528,0.0550,
新宿 (Shinjuku),2011-10-07,18:00～18:59,0.0570,0.0524,0.0548,
新宿 (Shinjuku),2011-10-07,17:00～17:59,0.0572,0.0524,0.0549,
新宿 (Shinjuku),2011-10-07,16:00～16:59,0.0578,0.0520,0.0550,
新宿 (Shinjuku),2011-10-07,15:00～15:59,0.0581,0.0530,0.0551,
新宿 (Shinjuku),2011-10-07,14:00～14:59,0.0582,0.0536,0.0554,
新宿 (Shinjuku),2011-10-07,13:00～13:59,0.0585,0.0537,0.0555,
新宿 (Shinjuku),2011-10-07,12:00～12:59,0.0579,0.0527,0.0555,
新宿 (Shinjuku),2011-10-07,11:00～11:59,0.0584,0.0534,0.0556,
新宿 (Shinjuku),2011-10-07,10:00～10:59,0.0582,0.0520,0.0556,
新宿 (Shinjuku),2011-10-07,09:00～09:59,0.0581,0.0542,0.0561,
新宿 (Shinjuku),2011-10-07,08:00～08:59,0.0583,0.0541,0.0562,
新宿 (Shinjuku),2011-10-07,07:00～07:59,0.0578,0.0531,0.0555,
新宿 (Shinjuku),2011-10-07,06:00～06:59,0.0586,0.0518,0.0552,
新宿 (Shinjuku),2011-10-07,05:00～05:59,0.0578,0.0533,0.0553,
新宿 (Shinjuku),2011-10-07,04:00～04:59,0.0591,0.0520,0.0552,
新宿 (Shinjuku),2011-10-07,03:00～03:59,0.0581,0.0527,0.0554,
新宿 (Shinjuku),2011-10-07,02:00～02:59,0.0589,0.0536,0.0563,
新宿 (Shinjuku),2011-10-07,01:00～01:59,0.0607,0.0544,0.0571,
新宿 (Shinjuku),2011-10-07,00:00～00:59,0.0596,0.0525,0.0557,
新宿 (Shinjuku),2011-10-06,23:00～23:59,0.0586,0.0516,0.0552,
新宿 (Shinjuku),2011-10-06,22:00～22:59,0.0569,0.0520,0.0547,
新宿 (Shinjuku),2011-10-06,21:00～21:59,0.0572,0.0522,0.0549,
新宿 (Shinjuku),2011-10-06,20:00～20:59,0.0580,0.0525,0.0552,
新宿 (Shinjuku),2011-10-06,19:00～19:59,0.0580,0.0520,0.0550,
新宿 (Shinjuku),2011-10-06,18:00～18:59,0.0584,0.0526,0.0549,
新宿 (Shinjuku),2011-10-06,17:00～17:59,0.0569,0.0505,0.0544,
新宿 (Shinjuku),2011-10-06,16:00～16:59,0.0577,0.0522,0.0546,
新宿 (Shinjuku),2011-10-06,15:00～15:59,0.0577,0.0530,0.0550,
新宿 (Shinjuku),2011-10-06,14:00～14:59,0.0577,0.0526,0.0550,
新宿 (Shinjuku),2011-10-06,13:00～13:59,0.0583,0.0526,0.0550,
新宿 (Shinjuku),2011-10-06,12:00～12:59,0.0578,0.0525,0.0552,
新宿 (Shinjuku),2011-10-06,11:00～11:59,0.0575,0.0530,0.0553,
新宿 (Shinjuku),2011-10-06,10:00～10:59,0.0574,0.0523,0.0550,
新宿 (Shinjuku),2011-10-06,09:00～09:59,0.0582,0.0536,0.0555,
新宿 (Shinjuku),2011-10-06,08:00～08:59,0.0572,0.0520,0.0552,
新宿 (Shinjuku),2011-10-06,07:00～07:59,0.0574,0.0532,0.0553,
新宿 (Shinjuku),2011-10-06,06:00～06:59,0.0585,0.0533,0.0558,
新宿 (Shinjuku),2011-10-06,05:00～05:59,0.0592,0.0534,0.0562,
新宿 (Shinjuku),2011-10-06,04:00～04:59,0.0593,0.0543,0.0567,
新宿 (Shinjuku),2011-10-06,03:00～03:59,0.0610,0.0539,0.0572,
新宿 (Shinjuku),2011-10-06,02:00～02:59,0.0603,0.0531,0.0568,
新宿 (Shinjuku),2011-10-06,01:00～01:59,0.0623,0.0544,0.0592,
新宿 (Shinjuku),2011-10-06,00:00～00:59,0.0646,0.0593,0.0618,
新宿 (Shinjuku),2011-10-05,23:00～23:59,0.0642,0.0593,0.0613,
新宿 (Shinjuku),2011-10-05,22:00～22:59,0.0659,0.0586,0.0613,
新宿 (Shinjuku),2011-10-05,21:00～21:59,0.0658,0.0613,0.0633,
新宿 (Shinjuku),2011-10-05,20:00～20:59,0.0657,0.0593,0.0625,
新宿 (Shinjuku),2011-10-05,19:00～19:59,0.0657,0.0603,0.0629,
新宿 (Shinjuku),2011-10-05,18:00～18:59,0.0675,0.0614,0.0639,
新宿 (Shinjuku),2011-10-05,17:00～17:59,0.0676,0.0610,0.0647,
新宿 (Shinjuku),2011-10-05,16:00～16:59,0.0688,0.0606,0.0641,
新宿 (Shinjuku),2011-10-05,15:00～15:59,0.0715,0.0635,0.0665,
新宿 (Shinjuku),2011-10-05,14:00～14:59,0.0676,0.0625,0.0649,
新宿 (Shinjuku),2011-10-05,13:00～13:59,0.0670,0.0617,0.0646,
新宿 (Shinjuku),2011-10-05,12:00～12:59,0.0653,0.0588,0.0622,
新宿 (Shinjuku),2011-10-05,11:00～11:59,0.0661,0.0558,0.0602,
新宿 (Shinjuku),2011-10-05,10:00～10:59,0.0615,0.0560,0.0583,
新宿 (Shinjuku),2011-10-05,09:00～09:59,0.0593,0.0539,0.0565,
新宿 (Shinjuku),2011-10-05,08:00～08:59,0.0597,0.0549,0.0571,
新宿 (Shinjuku),2011-10-05,07:00～07:59,0.0616,0.0567,0.0589,
新宿 (Shinjuku),2011-10-05,06:00～06:59,0.0609,0.0551,0.0579,
新宿 (Shinjuku),2011-10-05,05:00～05:59,0.0614,0.0541,0.0576,
新宿 (Shinjuku),2011-10-05,04:00～04:59,0.0593,0.0545,0.0563,
新宿 (Shinjuku),2011-10-05,03:00～03:59,0.0572,0.0520,0.0552,
新宿 (Shinjuku),2011-10-05,02:00～02:59,0.0583,0.0528,0.0553,
新宿 (Shinjuku),2011-10-05,01:00～01:59,0.0576,0.0522,0.0553,
新宿 (Shinjuku),2011-10-05,00:00～00:59,0.0581,0.0530,0.0551,
新宿 (Shinjuku),2011-10-04,23:00～23:59,0.0579,0.0530,0.0550,
新宿 (Shinjuku),2011-10-04,22:00～22:59,0.0589,0.0527,0.0552,
新宿 (Shinjuku),2011-10-04,21:00～21:59,0.0574,0.0513,0.0548,
新宿 (Shinjuku),2011-10-04,20:00～20:59,0.0572,0.0521,0.0549,
新宿 (Shinjuku),2011-10-04,19:00～19:59,0.0571,0.0522,0.0549,
新宿 (Shinjuku),2011-10-04,18:00～18:59,0.0583,0.0526,0.0550,
新宿 (Shinjuku),2011-10-04,17:00～17:59,0.0573,0.0524,0.0549,
新宿 (Shinjuku),2011-10-04,16:00～16:59,0.0578,0.0529,0.0551,
新宿 (Shinjuku),2011-10-04,15:00～15:59,0.0585,0.0516,0.0547,
新宿 (Shinjuku),2011-10-04,14:00～14:59,0.0582,0.0533,0.0556,
新宿 (Shinjuku),2011-10-04,13:00～13:59,0.0581,0.0522,0.0554,
新宿 (Shinjuku),2011-10-04,12:00～12:59,0.0590,0.0527,0.0555,
新宿 (Shinjuku),2011-10-04,11:00～11:59,0.0583,0.0530,0.0554,
新宿 (Shinjuku),2011-10-04,10:00～10:59,0.0588,0.0518,0.0557,
新宿 (Shinjuku),2011-10-04,09:00～09:59,0.0594,0.0520,0.0559,
新宿 (Shinjuku),2011-10-04,08:00～08:59,0.0590,0.0531,0.0562,
新宿 (Shinjuku),2011-10-04,07:00～07:59,0.0580,0.0530,0.0557,
新宿 (Shinjuku),2011-10-04,06:00～06:59,0.0576,0.0528,0.0552,
新宿 (Shinjuku),2011-10-04,05:00～05:59,0.0579,0.0513,0.0551,
新宿 (Shinjuku),2011-10-04,04:00～04:59,0.0578,0.0526,0.0555,
新宿 (Shinjuku),2011-10-04,03:00～03:59,0.0572,0.0528,0.0551,
新宿 (Shinjuku),2011-10-04,02:00～02:59,0.0582,0.0529,0.0555,
新宿 (Shinjuku),2011-10-04,01:00～01:59,0.0576,0.0523,0.0553,
新宿 (Shinjuku),2011-10-04,00:00～00:59,0.0588,0.0525,0.0551,
新宿 (Shinjuku),2011-10-03,23:00～23:59,0.0583,0.0525,0.0551,
新宿 (Shinjuku),2011-10-03,22:00～22:59,0.0579,0.0514,0.0549,
新宿 (Shinjuku),2011-10-03,21:00～21:59,0.0587,0.0518,0.0552,
新宿 (Shinjuku),2011-10-03,20:00～20:59,0.0592,0.0532,0.0553,
新宿 (Shinjuku),2011-10-03,19:00～19:59,0.0574,0.0520,0.0550,
新宿 (Shinjuku),2011-10-03,18:00～18:59,0.0572,0.0525,0.0548,
新宿 (Shinjuku),2011-10-03,17:00～17:59,0.0577,0.0515,0.0546,
新宿 (Shinjuku),2011-10-03,16:00～16:59,0.0584,0.0525,0.0550,
新宿 (Shinjuku),2011-10-03,15:00～15:59,0.0568,0.0527,0.0549,
新宿 (Shinjuku),2011-10-03,14:00～14:59,0.0572,0.0530,0.0553,
新宿 (Shinjuku),2011-10-03,13:00～13:59,0.0578,0.0527,0.0553,
新宿 (Shinjuku),2011-10-03,12:00～12:59,0.0583,0.0534,0.0554,
新宿 (Shinjuku),2011-10-03,11:00～11:59,0.0576,0.0517,0.0552,
新宿 (Shinjuku),2011-10-03,10:00～10:59,0.0589,0.0530,0.0558,
新宿 (Shinjuku),2011-10-03,09:00～09:59,0.0576,0.0531,0.0554,
新宿 (Shinjuku),2011-10-03,08:00～08:59,0.0581,0.0526,0.0552,
新宿 (Shinjuku),2011-10-03,07:00～07:59,0.0578,0.0530,0.0552,
新宿 (Shinjuku),2011-10-03,06:00～06:59,0.0584,0.0529,0.0552,
新宿 (Shinjuku),2011-10-03,05:00～05:59,0.0582,0.0515,0.0555,
新宿 (Shinjuku),2011-10-03,04:00～04:59,0.0581,0.0523,0.0555,
新宿 (Shinjuku),2011-10-03,03:00～03:59,0.0577,0.0530,0.0552,
新宿 (Shinjuku),2011-10-03,02:00～02:59,0.0584,0.0534,0.0553,
新宿 (Shinjuku),2011-10-03,01:00～01:59,0.0570,0.0521,0.0552,
新宿 (Shinjuku),2011-10-03,00:00～00:59,0.0572,0.0525,0.0550,
